This is the latest recevied weather packets stored in our database for station/object OZ1IEP-5. If no packets are shown the sender has not sent any weather packets the latest 1 day(s).
| Time | Temp. | Humidity | Pressure | Rain* | Wind** | Luminosity | Snow |
|---|---|---|---|---|---|---|---|
| 1778021406 | 7.22° C | 82% | 1009.5 hPa | 0 mm | 0.45 m/s, 23° | 0 W/m² | - |
| 1778020806 | 7.22° C | 81% | 1009.6 hPa | 0 mm | 0.45 m/s, 13° | 0 W/m² | - |
| 1778020216 | 7.22° C | 81% | 1009.7 hPa | 0 mm | 0.45 m/s, 8° | 0 W/m² | - |
| 1778019605 | 7.22° C | 81% | 1009.8 hPa | 0 mm | 0.45 m/s, 21° | 0 W/m² | - |
| 1778019005 | 7.22° C | 81% | 1009.8 hPa | 0 mm | 0.89 m/s, 7° | 0 W/m² | - |
| 1778018409 | 7.22° C | 81% | 1009.8 hPa | 0 mm | 0.89 m/s, 9° | 0 W/m² | - |
| 1778017806 | 7.22° C | 80% | 1009.9 hPa | 0 mm | 1.34 m/s, 4° | 0 W/m² | - |
| 1778017205 | 7.22° C | 80% | 1009.9 hPa | 0 mm | 1.34 m/s, 1° | 0 W/m² | - |
| 1778016609 | 7.22° C | 79% | 1009.8 hPa | 0 mm | 1.34 m/s, 9° | 0 W/m² | - |
| 1778016005 | 7.22° C | 78% | 1009.9 hPa | 0 mm | 0.89 m/s, 11° | 0 W/m² | - |
| 1778015406 | 7.22° C | 77% | 1009.9 hPa | 0 mm | 0.45 m/s, 10° | 0 W/m² | - |
| 1778014808 | 7.22° C | 75% | 1009.9 hPa | 0 mm | 0.45 m/s, 23° | 0 W/m² | - |
| 1778014205 | 7.22° C | 74% | 1010 hPa | 0 mm | 0 m/s | 0 W/m² | - |
| 1778013606 | 7.22° C | 73% | 1009.9 hPa | 0 mm | 0 m/s | 0 W/m² | - |
| 1778013008 | 7.22° C | 72% | 1009.9 hPa | 0 mm | 0.45 m/s, 10° | 0 W/m² | - |
| 1778012405 | 7.22° C | 72% | 1009.9 hPa | 0 mm | 0.89 m/s, 11° | 0 W/m² | - |
| 1778011806 | 7.22° C | 70% | 1009.9 hPa | 0 mm | 0.89 m/s, 8° | 0 W/m² | - |
| 1778011208 | 7.22° C | 69% | 1009.8 hPa | 0 mm | 1.34 m/s, 3° | 0 W/m² | - |
| 1778010605 | 7.22° C | 67% | 1009.9 hPa | 0 mm | 0.45 m/s, 11° | 0 W/m² | - |
| 1778010005 | 7.22° C | 64% | 1009.9 hPa | 0 mm | 0.89 m/s, 4° | 0 W/m² | - |
| 1778009408 | 7.78° C | 62% | 1009.9 hPa | 0 mm | 1.34 m/s, 357° | 0 W/m² | - |
| 1778008805 | 7.78° C | 59% | 1009.9 hPa | 0 mm | 1.34 m/s, 0° | 0 W/m² | - |
| 1778008206 | 8.33° C | 57% | 1009.9 hPa | 0 mm | 1.34 m/s, 358° | 0 W/m² | - |
| 1778007619 | 8.89° C | 57% | 1009.8 hPa | 0 mm | 0.89 m/s, 2° | 0 W/m² | - |
| 1778007005 | 8.89° C | 55% | 1009.8 hPa | 0 mm | 0 m/s | 5 W/m² | - |
* Rain latest hour (hover to see other rain measurements)
** Current wind speed in m/s (hover to see current wind gust speed)